Regional Weather Roundup
Issued by NWS

Home | Current Version | Previous Version | Text Only | Print | Product List | Glossary Off
Versions: 1 2 3 4 5 6 7 8 9 10 11 12 13 14 15 16 17 18 19 20 21 22 23 24 25 26 27 28 29 30 31 32 33 34 35 36 37 38 39 40 41 42 43 44 45 46 47 48 49 50

000
ASUS43 KLOT 230206
RWRIL

ILLINOIS REGIONAL WEATHER ROUNDUP
NATIONAL WEATHER SERVICE CHICAGO/ROMEOVILLE IL
900 PM CDT WED OCT 22 2014

NOTE: "FAIR" INDICATES FEW OR NO CLOUDS BELOW 12,000 FEET WITH NO
SIGNIFICANT WEATHER AND/OR OBSTRUCTIONS TO VISIBILITY.

* THESE STATIONS ARE NOT UNDER NWS QUALITY CONTROL. THEY ALSO MAY NOT
  REPORT WEATHER SUCH AS PRECIPITATION OR FOG.

ILZ001-002-007-009-015-016-024-230300-
NORTHWEST ILLINOIS

CITY           SKY/WX    TMP DP  RH WIND       PRES   REMARKS
MOLINE         CLEAR     39  35  86 CALM      30.24R
STERLING*      CLEAR     39  34  81 CALM      30.25R
SAVANNA*       CLEAR     47  35  62 CALM      30.24S
$$

ILZ003-004-008-010-011-017-018-230300-
NORTH CENTRAL ILLINOIS

CITY           SKY/WX    TMP DP  RH WIND       PRES   REMARKS
ROCKFORD       CLEAR     45  35  68 SE5       30.27R
FREEPORT*      CLEAR     38  33  79 S5        30.27R WCI  35
ROCHELLE*      CLEAR     39  35  84 SE5       30.26S
DE KALB*       CLEAR     39  34  82 SE3       30.27R
PERU*          CLEAR     48  35  62 E6        30.26R
$$

ILZ005-006-012>014-019>023-230300-
NORTHEAST ILLINOIS

CITY           SKY/WX    TMP DP  RH WIND       PRES   REMARKS
CHICAGO-OHARE  CLEAR     42  36  79 SE5       30.26S
CHICAGO-MIDWAY CLEAR     48  37  65 E5        30.27S
AURORA         CLEAR     42  34  73 E6        30.27R
LANSING*       CLEAR     39  35  87 CALM      30.28R
JOLIET*        CLEAR     43  35  73 CALM      30.27R
WAUKEGAN       CLEAR     35  34  96 CALM      30.27R
DUPAGE AIRPORT CLEAR     43  36  76 CALM      30.26S
KANKAKEE*      CLEAR     41  36  84 E6        30.27S
WHEELING       CLEAR     42  36  79 CALM      30.29S
MORRIS*        CLEAR     42  37  82 E5        30.26R
ROMEOVILLE*    CLEAR     42  36  77 E5        30.27R
NORTHERLY ISL    N/A     49  38  65 SE7         N/A
$$

LMZ740>746-230300-
SOUTHERN LAKE MICHIGAN

STATION/POSITION SKY/WX   TEMP    WIND        PRES    VSBY  WAVE
                          AIR SEA DIR/SP/G                  HT/PER
                          (F)     (DEG/KT/KT) (MB)    (MI)  (FT/S)
SOUTHERN BUOY              49 54  100/  8/ 10 1025.6F         1
WAUKEGAN HARBOR            48     130/  8/ 10   N/A
HARRISON CRIB              49     110/  7/ 10   N/A
BURNHAM HARBOR             49     120/  5/  7   N/A
CALUMET HARBOR             50      90/  4/  6 1023.8R
MICHIGAN CITY              46      60/  8/  9   N/A
$$

ILZ025>027-034>036-040-047-049-050-058-095>099-230300-
WEST-CENTRAL ILLINOIS

CITY           SKY/WX    TMP DP  RH WIND       PRES   REMARKS
QUINCY         CLEAR     50  40  68 CALM      30.22R
GALESBURG*     CLEAR     44  38  81 CALM      30.24S
MACOMB*        CLEAR     40  36  84 CALM      30.26R
JACKSONVILLE*  CLEAR     46  39  75 E6        30.24R
PITTSFIELD*    CLEAR     48  41  76 CALM      30.24R
$$

ILZ028>032-037-038-041>044-048-051>054-059>061-230300-
CENTRAL ILLINOIS

CITY           SKY/WX    TMP DP  RH WIND       PRES   REMARKS
PONTIAC        CLEAR     40  34  80 E3        30.26R
BLOOMINGTON    CLEAR     45  36  70 CALM      30.26R
DECATUR        CLEAR     41  36  82 E3        30.25S
PEORIA         CLEAR     51  36  56 SE5       30.25R
LACON*         CLEAR     46  34  62 SE5       30.25R
LINCOLN*       CLEAR     43  37  80 CALM      30.24R
SPRINGFIELD    CLEAR     42  36  79 E3        30.24R
TAYLORVILLE    CLEAR     45  37  76 E3        30.24S
$$

ILZ033-039-045-046-055>057-062-063-230300-
EAST-CENTRAL ILLINOIS

CITY           SKY/WX    TMP DP  RH WIND       PRES   REMARKS
CHAMPAIGN      CLEAR     43  36  76 E5        30.25S
DANVILLE*      CLEAR     43  36  77 CALM      30.23S
RANTOUL*       CLEAR     44  36  72 CALM      30.25S
MATTOON        CLEAR     48  41  76 CALM      30.24S
PARIS*         CLEAR     40  38  95 CALM      30.26S
$$

ILZ079-100>102-230300-
SOUTHWEST ILLINOIS

CITY           SKY/WX    TMP DP  RH WIND       PRES   REMARKS
ALTON          CLEAR     45  41  87 SE6       30.24R
BELLEVILLE     CLEAR     47  42  81 CALM      30.23R
CAHOKIA*       CLEAR     46  42  86 CALM      30.23R
SPARTA*        FOG       45  41  85 CALM      30.24S VSB 1/2
$$

ILZ064>066-069>071-074>076-080>082-084>086-088>090-092>094-230300-
SOUTH-CENTRAL ILLINOIS

CITY           SKY/WX    TMP DP  RH WIND       PRES   REMARKS
CARBONDALE     CLEAR     45  41  86 CALM      30.23R
CAIRO*         CLEAR     47  41  80 CALM      30.22R
EFFINGHAM*     CLEAR     43  38  82 CALM      30.25R
MARION         CLEAR     48  41  76 CALM      30.24R
MT. VERNON     CLEAR     39  34  81 CALM      30.24S
CENTRALIA*     CLEAR     43  38  85 CALM      30.24R
SALEM*         CLEAR     46  43  90 CALM      30.24S
METROPOLIS*    CLEAR     47  43  88 CALM      30.21S
$$

ILZ067-068-072-073-078-083-087-091-230300-
SOUTHEAST ILLINOIS

CITY           SKY/WX    TMP DP  RH WIND       PRES   REMARKS
LAWRENCEVILLE  CLEAR     45  42  89 CALM      30.25S
FLORA*         CLEAR     47  41  80 CALM      30.25R
FAIRFIELD*     CLEAR     44  41  92 CALM      30.23S
HARRISBURG*    CLEAR     48  40  73 CALM      30.24S
ROBINSON*      CLEAR     42  40  95 CALM      30.26R
CARMI*         CLEAR     43  42  95 CALM      30.23S
$$

ABBREVIATIONS USED IN REMARKS
   TC - TEMPERATURE IN CELSIUS
  WCI - WIND CHILL INDEX
   HX - HEAT INDEX
  VSB - VISIBILITY
$$




USA.gov is the U.S. government's official web portal to all federal, state and local government web resources and services.